DW8259 Weather Reports


time (UTC)temp
C
wind
direction
speed
KPH
gust
KPH
rain 1hr
cm
rain 24hr
cm
rain mn
cm
humidity
%
barometer
mb
20260906145214 23 88 0.0 8.0 0.00 0.00 0.00 87 1018.5
20260906144503 23 93 0.0 4.8 0.00 0.00 0.00 88 1018.4
20260906144003 23 90 0.0 4.8 0.00 0.00 0.00 89 1018.4
20260906143503 23 77 0.0 6.4 0.00 0.00 0.00 89 1018.5
20260906143003 23 75 0.0 6.4 0.00 0.00 0.00 89 1018.4
20260906142503 23 78 0.0 3.2 0.00 0.00 0.00 89 1018.3
20260906142003 23 94 0.0 4.8 0.00 0.00 0.00 90 1018.3
20260906141503 23 94 0.0 4.8 0.00 0.00 0.00 90 1018.2
20260906141003 22 110 0.0 8.0 0.00 0.00 0.00 90 1018.1
20260906140503 22 120 0.0 8.0 0.00 0.00 0.00 90 1018.0
20260906140213 22 137 0.0 4.8 0.00 0.00 0.00 90 1018.1
20260906135503 22 116 0.0 4.8 0.00 0.00 0.00 91 1018.1
20260906135213 22 102 0.0 3.2 0.00 0.00 0.00 91 1018.0
20260906134503 22 113 0.0 3.2 0.00 0.00 0.00 91 1018.0
20260906134003 22 112 0.0 8.0 0.00 0.00 0.00 91 1018.0
20260906133503 22 110 0.0 8.0 0.00 0.00 0.00 92 1018.1
20260906133003 22 94 1.6 9.7 0.00 0.00 0.00 92 1018.0
20260906132504 22 92 1.6 11.3 0.00 0.00 0.00 92 1018.0
20260906132003 21 95 0.0 11.3 0.00 0.00 0.00 92 1018.1
20260906131503 21 94 0.0 8.0 0.00 0.00 0.00 92 1018.1
20260906131003 21 91 0.0 8.0 0.00 0.00 0.00 92 1018.2
20260906130503 21 84 0.0 3.2 0.00 0.00 0.00 92 1018.1
20260906130003 21 85 0.0 8.0 0.00 0.00 0.00 93 1018.0
20260906125503 21 86 0.0 8.0 0.00 0.00 0.00 93 1018.1
20260906125003 21 88 0.0 4.8 0.00 0.00 0.00 93 1018.2
20260906124503 21 88 0.0 3.2 0.00 0.00 0.00 93 1018.2
20260906124004 21 88 0.0 3.2 0.00 0.00 0.00 93 1018.3
20260906123503 21 87 0.0 1.6 0.00 0.00 0.00 93 1018.1
20260906123003 21 87 0.0 1.6 0.00 0.00 0.00 93 1018.1
20260906122503 21 87 0.0 1.6 0.00 0.00 0.00 93 1018.0
20260906122003 21 87 0.0 1.6 0.00 0.00 0.00 93 1018.0
20260906121714 21 87 0.0 1.6 0.00 0.00 0.00 93 1017.9
20260906121003 21 0 0.0 0.0 0.00 0.00 0.00 93 1017.9
20260906120503 21 87 0.0 1.6 0.00 0.00 0.00 93 1017.9
20260906120003 21 87 0.0 1.6 0.00 0.00 0.00 93 1017.6
20260906115503 21 87 0.0 1.6 0.00 0.00 0.00 93 1017.4
20260906115213 21 87 0.0 1.6 0.00 0.00 0.00 93 1017.3
20260906114503 21 87 0.0 1.6 0.00 0.00 0.00 93 1017.3
20260906114003 21 0 0.0 0.0 0.00 0.00 0.00 93 1017.3
20260906113713 21 0 0.0 0.0 0.00 0.00 0.00 93 1017.3
20260906113003 21 87 0.0 1.6 0.00 0.00 0.00 93 1017.1
20260906112713 21 87 0.0 1.6 0.00 0.00 0.00 93 1017.1
20260906112003 21 87 0.0 1.6 0.00 0.00 0.00 93 1016.9
20260906111503 21 87 0.0 1.6 0.00 0.00 0.00 93 1016.8
20260906111003 21 88 0.0 4.8 0.00 0.00 0.00 93 1016.7
20260906110503 21 88 0.0 4.8 0.00 0.00 0.00 93 1016.7
20260906110003 21 88 0.0 1.6 0.00 0.00 0.00 93 1016.7
20260906105503 21 88 0.0 1.6 0.00 0.00 0.00 93 1016.6
20260906105003 21 88 0.0 1.6 0.00 0.00 0.00 93 1016.5
20260906104713 21 88 0.0 1.6 0.00 0.00 0.00 93 1016.4
20260906104003 21 88 0.0 1.6 0.00 0.00 0.00 92 1016.3
20260906103503 21 0 0.0 0.0 0.00 0.00 0.00 92 1016.4
20260906103214 21 0 0.0 0.0 0.00 0.00 0.00 92 1016.3
20260906102503 21 88 0.0 1.6 0.00 0.00 0.00 92 1016.3
20260906102214 21 88 0.0 1.6 0.00 0.00 0.00 92 1016.3
20260906101713 21 88 0.0 1.6 0.00 0.00 0.00 92 1016.2
20260906101003 21 89 0.0 1.6 0.00 0.00 0.00 92 1016.3
20260906100503 21 89 0.0 1.6 0.00 0.00 0.00 92 1016.4
20260906100003 21 0 0.0 0.0 0.00 0.00 0.00 92 1016.4
20260906095503 21 0 0.0 0.0 0.00 0.00 0.00 92 1016.3
20260906095003 21 0 0.0 0.0 0.00 0.00 0.00 92 1016.2
20260906094503 21 0 0.0 0.0 0.00 0.00 0.00 92 1016.2
20260906094214 21 0 0.0 0.0 0.00 0.00 0.00 92 1016.2
20260906093503 21 0 0.0 0.0 0.00 0.00 0.00 91 1016.2
20260906093214 21 0 0.0 0.0 0.00 0.00 0.00 91 1016.2
20260906092503 21 0 0.0 0.0 0.00 0.00 0.00 91 1016.1
20260906092003 21 0 0.0 0.0 0.00 0.00 0.00 91 1016.1
20260906091503 21 0 0.0 0.0 0.00 0.00 0.00 91 1016.1
20260906091214 21 0 0.0 0.0 0.00 0.00 0.00 91 1016.1
20260906090713 21 0 0.0 0.0 0.00 0.00 0.00 91 1016.1
20260906090003 22 89 0.0 1.6 0.00 0.00 0.00 90 1016.0
20260906085712 22 89 0.0 1.6 0.00 0.00 0.00 90 1016.0
20260906085003 22 89 0.0 3.2 0.00 0.00 0.00 90 1016.2
20260906084503 22 89 0.0 3.2 0.00 0.00 0.00 90 1016.2
20260906084003 22 89 0.0 1.6 0.00 0.00 0.00 90 1016.2
20260906083503 22 89 0.0 1.6 0.00 0.00 0.00 90 1016.1
20260906083003 22 89 0.0 1.6 0.00 0.00 0.00 90 1016.2
20260906082503 22 89 0.0 1.6 0.00 0.00 0.00 90 1016.2
20260906082213 22 89 0.0 1.6 0.00 0.00 0.00 90 1016.2
20260906081503 22 89 0.0 1.6 0.00 0.00 0.00 90 1016.3
20260906081003 22 0 0.0 0.0 0.00 0.00 0.00 90 1016.3
20260906080713 22 0 0.0 0.0 0.00 0.00 0.00 90 1016.3
20260906080003 22 89 0.0 1.6 0.00 0.00 0.00 90 1016.2
20260906075503 22 89 0.0 3.2 0.00 0.00 0.00 90 1016.3
20260906075003 22 90 0.0 3.2 0.00 0.00 0.00 90 1016.4
20260906074503 22 90 0.0 3.2 0.00 0.00 0.00 90 1016.3
20260906074003 22 90 0.0 3.2 0.00 0.00 0.00 90 1016.3
20260906073503 22 90 0.0 3.2 0.00 0.00 0.00 90 1016.4
20260906073003 22 90 0.0 3.2 0.00 0.00 0.00 90 1016.4
20260906072503 22 90 0.0 1.6 0.00 0.00 0.00 90 1016.4
20260906072003 22 90 0.0 4.8 0.00 0.00 0.00 90 1016.4
20260906071714 22 90 0.0 4.8 0.00 0.00 0.00 90 1016.4
20260906071213 22 89 0.0 4.8 0.00 0.00 0.00 90 1016.3
20260906070503 22 83 0.0 4.8 0.00 0.00 0.00 90 1016.3
20260906070003 22 84 0.0 4.8 0.00 0.00 0.00 90 1016.4
20260906065503 22 87 0.0 4.8 0.00 0.00 0.00 90 1016.4
20260906065003 22 105 0.0 9.7 0.00 0.00 0.00 90 1016.5
20260906064503 22 102 1.6 9.7 0.00 0.00 0.00 90 1016.4
20260906064003 22 79 0.0 6.4 0.00 0.00 0.00 90 1016.5
20260906063503 23 61 0.0 3.2 0.00 0.00 0.00 90 1016.6
20260906063003 23 65 0.0 3.2 0.00 0.00 0.00 90 1016.6
20260906062714 23 71 0.0 4.8 0.00 0.00 0.00 90 1016.6
20260906062003 23 64 0.0 6.4 0.00 0.00 0.00 90 1016.5
20260906061503 23 92 0.0 3.2 0.00 0.00 0.00 90 1016.5
20260906061003 23 98 0.0 3.2 0.00 0.00 0.00 90 1016.6
20260906060503 23 98 0.0 9.7 0.00 0.00 0.00 90 1016.6
20260906060003 23 98 0.0 9.7 0.00 0.00 0.00 90 1016.6
20260906055503 23 99 0.0 8.0 0.00 0.00 0.00 90 1016.6
20260906055003 23 99 0.0 8.0 0.00 0.00 0.00 90 1016.4
20260906054503 23 102 0.0 1.6 0.00 0.00 0.00 90 1016.4
20260906054003 23 0 0.0 0.0 0.00 0.00 0.00 90 1016.3
20260906053503 23 100 0.0 3.2 0.00 0.00 0.00 90 1016.3
20260906053212 23 100 0.0 3.2 0.00 0.00 0.00 90 1016.2
20260906052503 23 82 0.0 1.6 0.00 0.00 0.00 89 1016.2
20260906052003 23 0 0.0 1.6 0.00 0.00 0.00 90 1016.2
20260906051503 23 82 0.0 1.6 0.00 0.00 0.00 90 1016.1
20260906051003 23 82 0.0 1.6 0.00 0.00 0.00 89 1016.1
20260906050503 23 82 0.0 1.6 0.00 0.00 0.00 89 1016.1
20260906050016 23 82 0.0 1.6 0.00 0.00 0.00 89 1016.0
20260906045503 23 82 0.0 1.6 0.00 0.00 0.00 89 1015.9
20260906045214 23 82 0.0 1.6 0.00 0.00 0.00 89 1015.8
20260906044503 23 0 0.0 0.0 0.00 0.00 0.00 89 1015.8
20260906044214 23 0 0.0 0.0 0.00 0.00 0.00 89 1015.8
20260906043503 23 82 0.0 1.6 0.00 0.00 0.00 89 1015.7
20260906043003 23 82 0.0 1.6 0.00 0.00 0.00 89 1015.6
20260906042503 23 82 0.0 1.6 0.00 0.00 0.00 89 1015.6
20260906042003 23 82 0.0 1.6 0.00 0.00 0.00 89 1015.6
20260906041503 23 82 0.0 1.6 0.00 0.00 0.00 88 1015.5
20260906041003 24 82 0.0 1.6 0.00 0.00 0.00 89 1015.3
20260906040503 24 82 0.0 1.6 0.00 0.00 0.00 88 1015.3
20260906040214 24 82 0.0 1.6 0.00 0.00 0.00 88 1015.2
20260906035503 24 82 0.0 1.6 0.00 0.00 0.00 88 1015.1
20260906035003 24 82 0.0 1.6 0.00 0.00 0.00 88 1015.2
20260906034503 24 82 0.0 3.2 0.00 0.00 0.00 88 1015.2
20260906034003 24 82 0.0 3.2 0.00 0.00 0.00 88 1015.1
20260906033503 24 82 0.0 1.6 0.00 0.00 0.00 87 1015.0
20260906033214 24 82 0.0 1.6 0.00 0.00 0.00 88 1014.9
20260906032503 24 82 0.0 1.6 0.00 0.00 0.00 87 1014.9
20260906032003 24 82 0.0 1.6 0.00 0.00 0.00 87 1015.0
20260906031503 25 83 0.0 1.6 0.00 0.00 0.00 87 1015.1
20260906031213 25 86 0.0 1.6 0.00 0.00 0.00 87 1015.1
20260906030503 25 87 0.0 1.6 0.00 0.00 0.00 86 1015.1
20260906030003 25 87 0.0 3.2 0.00 0.00 0.00 86 1015.0
20260906025503 25 87 0.0 3.2 0.00 0.00 0.00 86 1015.0
20260906025003 25 87 0.0 1.6 0.00 0.00 0.00 86 1015.0
20260906024503 25 88 0.0 3.2 0.00 0.00 0.00 86 1014.9
20260906024213 25 88 0.0 3.2 0.00 0.00 0.00 86 1014.9
20260906023714 25 88 0.0 3.2 0.00 0.00 0.00 86 1014.8
20260906023213 25 89 0.0 3.2 0.00 0.00 0.00 86 1014.7
20260906022714 25 97 0.0 4.8 0.00 0.00 0.00 86 1014.7
20260906022003 25 107 0.0 4.8 0.00 0.00 0.00 86 1014.7
20260906021503 25 99 0.0 8.0 0.00 0.00 0.00 85 1014.6
20260906021003 26 87 0.0 8.0 0.00 0.00 0.00 85 1014.6
20260906020503 26 71 0.0 8.0 0.00 0.00 0.00 85 1014.5
20260906020003 26 69 0.0 9.7 0.00 0.00 0.00 85 1014.5
20260906015503 26 72 0.0 9.7 0.00 0.00 0.00 85 1014.5
20260906015004 26 85 0.0 4.8 0.00 0.00 0.00 85 1014.5
20260906014503 26 86 0.0 3.2 0.00 0.00 0.00 85 1014.4
20260906014003 26 86 0.0 3.2 0.00 0.00 0.00 84 1014.3
20260906013503 26 86 0.0 3.2 0.00 0.00 0.00 84 1014.3
20260906013003 27 86 0.0 1.6 0.00 0.00 0.00 84 1014.2
20260906012503 27 86 0.0 3.2 0.00 0.00 0.00 83 1014.2
20260906012003 27 86 0.0 4.8 0.00 0.00 0.00 83 1014.2
20260906011714 27 86 0.0 4.8 0.00 0.00 0.00 83 1014.1
20260906011003 27 85 0.0 3.2 0.00 0.00 0.00 82 1014.0
20260906010503 27 87 0.0 1.6 0.00 0.00 0.00 82 1013.9
20260906010213 27 87 0.0 1.6 0.00 0.00 0.00 82 1013.9
20260906005503 28 90 0.0 8.0 0.00 0.00 0.00 81 1013.8
20260906005003 28 93 0.0 8.0 0.00 0.00 0.00 81 1013.8
20260906004503 28 105 0.0 3.2 0.00 0.00 0.00 81 1013.9
20260906004003 28 117 0.0 1.6 0.00 0.00 0.00 80 1013.9
20260906003503 28 0 0.0 1.6 0.00 0.00 0.00 80 1013.8
20260906003003 28 0 0.0 0.0 0.00 0.00 0.00 80 1013.7
20260906002713 28 0 0.0 0.0 0.00 0.00 0.00 80 1013.7
20260906002212 28 0 0.0 0.0 0.00 0.00 0.00 80 1013.8
20260906001503 29 0 0.0 0.0 0.00 0.00 0.00 79 1013.7
20260906001212 29 173 0.0 1.6 0.00 0.00 0.00 79 1013.7
20260906000503 30 173 0.0 1.6 0.00 0.00 0.00 79 1013.7
20260906000003 30 0 0.0 0.0 0.00 0.00 0.00 78 1013.6
20260905235503 30 0 0.0 0.0 0.00 0.00 0.00 78 1013.5
20260905235214 30 0 0.0 0.0 0.00 0.00 0.00 78 1013.4
20260905234503 30 218 0.0 1.6 0.00 0.00 0.00 77 1013.4
20260905234003 30 337 0.0 8.0 0.00 0.00 0.00 77 1013.4
20260905233503 30 346 0.0 8.0 0.00 0.00 0.00 76 1013.3
20260905233214 31 89 0.0 1.6 0.00 0.00 0.00 76 1013.2
20260905232503 31 89 0.0 3.2 0.00 0.00 0.00 76 1013.2
20260905232003 31 88 0.0 3.2 0.00 0.00 0.00 75 1013.1
20260905231503 31 88 0.0 3.2 0.00 0.00 0.00 74 1013.2
20260905231003 31 114 0.0 1.6 0.00 0.00 0.00 74 1013.1
20260905230713 31 114 0.0 1.6 0.00 0.00 0.00 74 1013.1
20260905230003 32 0 0.0 1.6 0.00 0.00 0.00 73 1013.0
20260905225713 32 190 0.0 1.6 0.00 0.00 0.00 73 1013.0
20260905225214 31 190 0.0 1.6 0.00 0.00 0.00 73 1013.0
20260905224503 31 0 0.0 0.0 0.00 0.00 0.00 73 1013.0
20260905224003 32 0 0.0 0.0 0.00 0.00 0.00 73 1013.0
20260905223503 32 0 0.0 0.0 0.00 0.00 0.00 73 1013.0
20260905223214 32 0 0.0 0.0 0.00 0.00 0.00 72 1013.0
20260905222503 32 182 0.0 1.6 0.00 0.00 0.00 72 1013.0
20260905222214 32 182 0.0 1.6 0.00 0.00 0.00 72 1012.9
20260905221503 32 0 0.0 0.0 0.00 0.00 0.00 71 1013.0
20260905221003 32 0 0.0 0.0 0.00 0.00 0.00 70 1013.0
20260905220503 32 0 0.0 0.0 0.00 0.00 0.00 69 1012.9
20260905220003 32 0 0.0 0.0 0.00 0.00 0.00 70 1012.9
20260905215503 33 0 0.0 0.0 0.00 0.00 0.00 70 1012.9
20260905215003 33 0 0.0 0.0 0.00 0.00 0.00 71 1012.9
20260905214503 32 0 0.0 0.0 0.00 0.00 0.00 71 1013.0
20260905214003 33 0 0.0 0.0 0.00 0.00 0.00 69 1012.9
20260905213503 33 172 0.0 1.6 0.00 0.00 0.00 69 1013.0
20260905213003 33 172 0.0 1.6 0.00 0.00 0.00 69 1012.9
20260905212503 33 0 0.0 0.0 0.00 0.00 0.00 68 1012.9
20260905212003 33 0 0.0 0.0 0.00 0.00 0.00 67 1013.0
20260905211503 34 0 0.0 0.0 0.00 0.00 0.00 66 1013.1
20260905211003 34 0 0.0 0.0 0.00 0.00 0.00 66 1013.1
20260905210503 33 0 0.0 0.0 0.00 0.00 0.00 69 1013.1
20260905210003 33 0 0.0 0.0 0.00 0.00 0.00 68 1013.2
20260905205503 33 0 0.0 0.0 0.00 0.00 0.00 70 1013.3
20260905205003 33 0 0.0 0.0 0.00 0.00 0.00 71 1013.3
20260905204503 33 0 0.0 0.0 0.00 0.00 0.00 73 1013.3
20260905204003 32 0 0.0 0.0 0.00 0.00 0.00 73 1013.2
20260905203503 32 0 0.0 0.0 0.00 0.00 0.00 73 1013.2
20260905203003 33 0 0.0 0.0 0.00 0.00 0.00 70 1013.3
20260905202503 33 0 0.0 0.0 0.00 0.00 0.00 70 1013.3
20260905202003 33 0 0.0 0.0 0.00 0.00 0.00 70 1013.3
20260905201503 33 0 0.0 0.0 0.00 0.00 0.00 69 1013.4
20260905201003 33 0 0.0 0.0 0.00 0.00 0.00 71 1013.5
20260905200503 33 0 0.0 0.0 0.00 0.00 0.00 71 1013.4
20260905200004 33 0 0.0 0.0 0.00 0.00 0.00 69 1013.6
20260905195503 33 0 0.0 0.0 0.00 0.00 0.00 71 1013.6
20260905195213 33 0 0.0 0.0 0.00 0.00 0.00 69 1013.6
20260905194503 33 0 0.0 0.0 0.00 0.00 0.00 70 1013.6
20260905194003 33 0 0.0 0.0 0.00 0.00 0.00 70 1013.7
20260905193503 33 0 0.0 0.0 0.00 0.00 0.00 71 1013.8
20260905193003 33 0 0.0 0.0 0.00 0.00 0.00 71 1013.8
20260905192503 33 0 0.0 0.0 0.00 0.00 0.00 71 1013.8
20260905192003 33 0 0.0 0.0 0.00 0.00 0.00 69 1013.8
20260905191503 33 0 0.0 0.0 0.00 0.00 0.00 69 1013.8
20260905191003 33 0 0.0 0.0 0.00 0.00 0.00 70 1013.8
20260905190503 33 0 0.0 0.0 0.00 0.00 0.00 70 1013.8
20260905190212 33 0 0.0 0.0 0.00 0.00 0.00 71 1013.7
20260905185503 33 0 0.0 0.0 0.00 0.00 0.00 68 1013.8
20260905185003 34 0 0.0 0.0 0.00 0.00 0.00 68 1013.8
20260905184503 34 0 0.0 0.0 0.00 0.00 0.00 67 1013.8
20260905184003 34 100 0.0 11.3 0.00 0.00 0.00 66 1013.8
20260905183503 34 100 0.0 11.3 0.00 0.00 0.00 67 1013.8
20260905183003 34 0 0.0 0.0 0.00 0.00 0.00 67 1013.8
20260905182503 34 90 0.0 1.6 0.00 0.00 0.00 65 1013.9
20260905182003 34 90 0.0 1.6 0.00 0.00 0.00 67 1014.0
20260905181503 34 90 0.0 1.6 0.00 0.00 0.00 67 1014.0
20260905181214 34 90 0.0 1.6 0.00 0.00 0.00 68 1014.0
20260905180713 34 90 0.0 1.6 0.00 0.00 0.00 67 1014.0
20260905180003 34 0 0.0 0.0 0.00 0.00 0.00 67 1014.1
20260905175503 34 0 0.0 0.0 0.00 0.00 0.00 67 1014.1
20260905175003 34 0 0.0 0.0 0.00 0.00 0.00 70 1014.2
20260905174503 33 83 0.0 8.0 0.00 0.00 0.00 69 1014.2
20260905174003 33 83 0.0 8.0 0.00 0.00 0.00 69 1014.3
20260905173503 33 84 0.0 3.2 0.00 0.00 0.00 72 1014.3
20260905173004 33 84 0.0 3.2 0.00 0.00 0.00 69 1014.4
20260905172503 33 0 0.0 0.0 0.00 0.00 0.00 69 1014.4
20260905172003 33 0 0.0 0.0 0.00 0.00 0.00 71 1014.3
20260905171503 33 0 0.0 0.0 0.00 0.00 0.00 72 1014.4
20260905171003 33 85 0.0 1.6 0.00 0.00 0.00 72 1014.5
20260905170713 33 85 0.0 1.6 0.00 0.00 0.00 71 1014.5
20260905170003 33 0 0.0 0.0 0.00 0.00 0.00 71 1014.6
20260905165503 33 0 0.0 0.0 0.00 0.00 0.00 70 1014.5
20260905165003 33 0 0.0 0.0 0.00 0.00 0.00 69 1014.6
20260905164503 33 85 0.0 3.2 0.00 0.00 0.00 71 1014.6
20260905164003 33 85 0.0 3.2 0.00 0.00 0.00 70 1014.6
20260905163503 33 0 0.0 0.0 0.00 0.00 0.00 69 1014.5
20260905163213 33 0 0.0 0.0 0.00 0.00 0.00 70 1014.5
20260905162714 33 0 0.0 0.0 0.00 0.00 0.00 71 1014.5
20260905162003 33 0 0.0 0.0 0.00 0.00 0.00 71 1014.5
20260905161503 33 92 0.0 1.6 0.00 0.00 0.00 72 1014.4
20260905161213 32 92 0.0 1.6 0.00 0.00 0.00 70 1014.5
20260905160503 32 105 0.0 3.2 0.00 0.00 0.00 72 1014.6
20260905160003 32 105 0.0 3.2 0.00 0.00 0.00 73 1014.6
20260905155503 32 0 0.0 0.0 0.00 0.00 0.00 71 1014.5
20260905155003 33 0 0.0 0.0 0.00 0.00 0.00 72 1014.6
20260905154503 33 0 0.0 0.0 0.00 0.00 0.00 71 1014.5
20260905154003 33 0 0.0 0.0 0.00 0.00 0.00 73 1014.5
20260905153503 33 0 0.0 0.0 0.00 0.00 0.00 70 1014.6
20260905153003 33 0 0.0 0.0 0.00 0.00 0.00 71 1014.5
20260905152503 33 0 0.0 0.0 0.00 0.00 0.00 70 1014.4
20260905152003 32 0 0.0 0.0 0.00 0.00 0.00 71 1014.3
20260905151503 32 0 0.0 0.0 0.00 0.00 0.00 71 1014.3
20260905151213 32 0 0.0 0.0 0.00 0.00 0.00 71 1014.3
20260905150503 32 0 0.0 0.0 0.00 0.00 0.00 72 1014.1
20260905150213 32 0 0.0 0.0 0.00 0.00 0.00 71 1014.2
20260905145503 32 0 0.0 0.0 0.00 0.00 0.00 72 1014.0